Погода Маресале

Погода Маресале : погода сейчас, прогноз погоды и архив. Всё, что Вы хотите узнать о погоде Маресале!

Хотите узнать прогноз погоды Маресале? Тогда Вам сюда: Погода Маресале

Поиск расширенной информации на нашем сайте:

Другие новости

Новости СМИ2

Главная страница сайта

Новости сайта

02.10.2013

Напоминаем, что на нашем новом сайте вы можете получить высокодетализированные прогнозы погоды по пунктам России, СНГ и мира (включающие важные для авиации метеовеличины, такие как направление и скорость ветра, видимость, явления погоды, количество и форма облачности, нижняя и верхняя граница облачности), а также ознакомиться с разнообразными материалами по авиационной метеорологии и подборкой полезных ссылок на эту тему.

Сайт Метеоцентр.Азия посвящён разработке технологий оптимизации авиаметеорологического обслуживания, включая проектирование и перспективное создание нескольких автоматизированных авиаметеорологических систем:
- система выпуска высокодетальных прогностических карт явлений погоды для нижнего воздушного пространства по России и ближнему зарубежью;
- система верификации прогнозов TAF (выпускаемых синоптиками официальных АМСГ РФ и ближнего зарубежья) и AUTOTAF (выпускаемых сайтом Метеоцентр.Азия) - выявление ошибок, онлайн-сопоставление с фактической погодой METAR, автоматическое внесение коррективов в прогнозы при резком отклонении фактической погоды от прогноза, подсчёт оправдываемости прогнозов по элементам и в целом;
- система обработки, анализа и отображения авиаметеорологической информации для применения провайдерами метеорологической информации.

Рекомендуем: Очень заманчивое предложение:. Частотный преобразователь 5.5 кВт - широкий выбор!

Погода Маресале - сегодня

Время (UTC), дата Ветер
(°,м/с) 
Видим.   Явления Облачность Т
(°С)
Тd
(°С)
f(%) Тe
(°С)
Pmin
(гПа)
dP
(гПа)
Po
(мм)
O2
(г/м3)
Тmin Tmax R s Состояние
почвы
18 20.04.17 250 (З) 10 км    10/10 400 м 
[Sc]
-10.1 -10.8 95 -13  1022.4  0.2  764  321           
21 20.04.17 240 (ЮЗ) 2000 м  слаб. ливневой снег  10/10 270 м кучево-дожд. 
[Cb cap]
-9.3 -9.7 97 -11  1022.3  -0.1  764  320           
00 21.04.17 180 (Ю) 4000 м  дымка{ливн. осадки}  10/10 480 м 
[Sc]
-9.2 -9.6 97 -9  1021.8  -0.5  764  319           
03 21.04.17 220 (ЮЗ) 2000 м  слаб. ливневой снег  10/10 360 м кучево-дожд. 
[Cb cap]
-8.7 -9.4 95 -12  1021.3  -0.5  763  319  -11.4    0.2  14  неравномерный
сухой снег
100% 
06 21.04.17 240 (ЮЗ) 2000 м  слаб. ливневой снег  8/8 500 м кучево-дожд. 
[Cb cap]
-7.6 -9.6 86 -9  1020.4  -0.8  763  317           
09 21.04.17 110 (В) 10 км  позёмок{ливн. осадки}  3/3 600 м 
[Sc]
-9.5 -10.5 92 -14  1019.6  -0.9  762  319           
12 21.04.17 110 (В) 10 км  позёмок{ливн. осадки}  6/3 600 м средняя, верхняя 
[Sc|Ac trans|Ci fib]
-10.2 -11.9 87 -16  1017.6  -1.9  761  320           
15 21.04.17 090 (В) 9-11{11}  10 км  позёмок  10/4 600 м средняя, верхняя 
[Sc|Ac trans|Ci fib]
-12 -13.7 87 -19  1015.4  -2.3  759  321    -7.3  0.0     
18 21.04.17 090 (В) 11-14{14}  2000 м  метель  8/4 600 м средняя 
[Sc|Ac trans]
-11 -12.5 89 -19  1012.4  -3  757  319           
21 21.04.17 090 (В) 13-16{18}  1000 м  метель  10/6 600 м средняя 
[Sc|Ac und]
-10.2 -10.8 95 -19  1007.7  -4.7  753  316           
00 22.04.17 080 (В) 15-18{19}  0500 м  сильная метель  10/10 630 м 
[Sc]
-9.2 -9.6 97 -18  1003.3  -4.3  750  314           
03 22.04.17 080 (В) 16-20{20}  0200 м  сильная метель  ?/?  
-8.8 -9.2 97 -18  998.7  -4.6  747  312  -12    11  неравномерный
сухой снег
100% 
06 22.04.17 090 (В) 12-15{20}  0500 м  сильная метель  ?/?  
-8.2 -8.6 97 -16  995.1  -3.6  744  310           
09 22.04.17 120 (ЮВ) 8{15}  2000 м  слаб. ливневой снег  9/9 480 м кучево-дожд. 
[Cb cap]
-6.2 -6.6 97 -12  993.6  -1.4  743  307           
12 22.04.17 210 (ЮЗ) 10 км  позёмок{ливн. осадки}  10/4 300 м кучево-дожд., средняя 
[Cb cap|Ac und]
-5.1 -6.4 91 -9  994.2  0.6  743  306           
15 22.04.17 200 (Ю) 8{11}  10 км  позёмок  10/10 420 м кучево-дожд. 
[Cb cap]
-6.3 -7.6 90 -12  995.5  1.3  744  308    -4.8     
18 22.04.17 200 (Ю) 6{12}  10 км  позёмок  4/4 600 м 
[Sc]
-9.2 -10.5 90 -14  996.5  0.9  745  312           
21 22.04.17 180 (Ю) 6{11}  10 км  позёмок  8/8 400 м кучево-дожд. 
[Cb cap]
-10.9 -11.9 92 -16  997.2  0.7  745  314           
00 23.04.17 200 (Ю) 9-11{14}  4000 м  метель  10/10 300 м кучево-дожд. 
[Cb cap]
-9.4 -10.2 94 -16  997.6  0.5  746  312           
03 23.04.17 200 (Ю) 7{13}  10 км  позёмок  4/4 600 м 
[Sc]
-9.4 -10.1 95 -15  998.7  747  313  -11         
06 23.04.17 200 (Ю) 7{11}  10 км  позёмок  4/4 600 м 
[Sc]
-8.5 -9.5 92 -14  1000  1.3  748  312           
09 23.04.17 210 (ЮЗ) 6{10}  10 км  позёмок  4/3 600 м средняя 
[Sc|Ac trans]
-7.3 -8.7 90 -12  1001.7  1.7  749  311           
12 23.04.17 220 (ЮЗ) 10 км  позёмок  3/3 600 м 
[Sc]
-7.2 -8.8 88 -12  1003.6  1.9  750  311           
15 23.04.17 220 (ЮЗ) 10 км  позёмок  6/6 330 м 
[Cu Sc]
-8.7 -9.8 92 -14  1005.2  1.6  751  314    -6.8       
18 23.04.17 250 (З) 20000 м  позёмок{ливн. осадки}  1/1 600 м 
[Sc]
-10.4 -12.3 86 -14  1007.4  2.1  753  317           
Время (UTC), дата Ветер
(°,м/с) 
Видим.   Явления Облачность Т
(°С)
Тd
(°С)
f(%) Тe
(°С)
Pmin
(гПа)
dP
(гПа)
Po
(мм)
O2
(г/м3)
Тmin Tmax R s Состояние
почвы

Для получения пояснительной информации подведите курсор к названию столбца.

ПОГОДА Маресале - архив

Всё, что Вы хотите узнать о погоде Маресале - удобно и подробно!

Выберите нужную дату (начиная с 1 января 2015* года) и нажмите кнопку "Найти".
Будут отображены архивные сводки погоды по пункту Маресале, начиная с указанной даты.


Отображать данные в формате CSV (для использования в таблицах Excel)


Внимание! Наш архив погоды предназначен исключительно для личного некоммерческого использования в познавательных целях. Если Вам необходимы официальные справки о состоянии погоды (для производственных, юридических, коммерческих и т.п. целей), обращайтесь в органы Росгидромета.

*Примечание: данная дата относится к архиву по метеостанциям СССР (Россия, СНГ, Балтия).
Архив по метеостанциям Зарубежной Европы и Азии (кроме Китая) хранится 10 дней, по другим регионам земного шара (Китай, Африка, Америка, Австралия, Океания) - 1 день.

Маресале - район местоположения метеостанции


Название, широта, долгота, высота метеостанции:
Маресале 69.7°ш. 66.8°д. 25 м над ур. моря [Российская Федерация]

Дополнительная информация

В oтличие oт бoльшинства пoгoдных сайтoв мы публикуем пoдрoбную метеoинфoрмацию в детальнoм прoфессиoнальнoм фoрмате.

Характеристики температуры и влажнoсти вoздуха измеряются на высoте 2 м в тени вдали oт зданий и деревьев.
Скoрoсть ветра измеряется на высoте 10 м (на урoвне рoста челoвека скoрoсть ветра ниже в 1.5-2 раза). Если метеoстанция нахoдится в гoрoде или в лесу, тo скoрoсть ветра занижена на 2-4 м/с пo сравнению с oткрытым местoм. Скoрoсть ветра над акватoриями крупных рек и oзёр, а также на вершинах хoлмoв на 2-5 м/с выше, чем в oбычных услoвиях.
Атмoсфернoе давление в разных тoчках местнoсти мoжет значительнo oтличаться oт давления на метеoстанции, в зависимoсти oт услoвий рельефа (при пoдъёме на 10 м давление пoнижается примернo на 1 мм рт.ст.).